Location: Unspecified
(0.0000°N, 0.0000°E)
Time: 17:13:58
(UTC+00:00)

Vanguard 3 - Pass Details

Date: 07 February 2023
Orbit: 509 x 3249 km, 33.3° (Epoch: 20 March)

Event Time Altitude Azimuth Distance (km) Brightness Sun altitude
Rises 04:57:30 0° 270° (W) 7,152 - -18.4°
Reaches altitude 10° 05:04:29 10° 257° (WSW) 5,902 - -16.8°
Exits shadow 05:04:49 11° 256° (WSW) 5,845 11.0 -16.7°
Maximum altitude 05:16:22 22° 214° (SW) 4,252 10.6 -13.9°
Drops below altitude 10° 05:25:20 10° 168° (SSE) 4,312 11.2 -11.7°
Sets 05:29:24 0° 152° (SSE) 4,855 11.8 -10.8°
